Change the Weather History Date:

Thursday, December 13, 2012

  Actual Average Record
Temperature  
Mean Temperature 37 °F -  
Max Temperature 42 °F 31 °F 42 °F (2006)
Min Temperature 32 °F 14 °F -12 °F (1989)
Degree Days  
Heating Degree Days 28    
Moisture  
Dew Point 33 °F    
Average Humidity 84    
Maximum Humidity 93    
Minimum Humidity 70    
Precipitation  
Precipitation 0.00 in - - ()
Sea Level Pressure  
Sea Level Pressure 30.04 in    
Wind  
Wind Speed 8 mph (SSW)    
Max Wind Speed 12 mph    
Max Gust Speed 20 mph    
Visibility 10 miles    
Events      
Averages and records for this station are not official NWS values.
T = Trace of Precipitation, MM = Missing Value Source: NWS Daily Summary

Daily Weather History Graph

Daily Weather History Graph

Search for Another Location

Airport or City:

Trip Planner

Search our weather history database for the weather conditions in past years. The results will help you decide how hot, cold, wet, or windy it might be!

Date:

Astronomy

Dec. 13, 2012 Rise Set
Actual Time 8:12 AM EST 4:51 PM EST
Civil Twilight 7:38 AM EST 5:26 PM EST
Nautical Twilight 6:59 AM EST 6:04 PM EST
Astronomical Twilight 6:23 AM EST 6:41 PM EST
Moon 8:19 AM EST (12/13) 5:34 PM EST (12/13)
Length of Visible Light 9h 48m
Length of Day
8h 39m
New Moon, 0% of the Moon is Illuminated
Dec 13
New Moon
Dec 20
First Quarter
Dec 28
Full
Jan 4
Last Quarter
Jan 11
New

Hourly Weather History & Observations

Time (EST) Temp. Windchill Dew Point Humidity Pressure Visibility Wind Dir Wind Speed Gust Speed Precip Events Conditions
12:15 AM 33.8 °F 27.0 °F 30.2 °F 87% 30.13 in 10.0 mi South 8.1 mph - N/A   Overcast
12:35 AM 33.8 °F 26.4 °F 30.2 °F 87% 30.12 in 10.0 mi SSE 9.2 mph - N/A   Overcast
12:55 AM 33.8 °F 26.4 °F 30.2 °F 87% 30.12 in 10.0 mi South 9.2 mph - N/A   Mostly Cloudy
1:15 AM 33.8 °F 27.0 °F 30.2 °F 87% 30.11 in 10.0 mi South 8.1 mph - N/A   Mostly Cloudy
1:35 AM 35.6 °F 28.6 °F 30.2 °F 81% 30.11 in 10.0 mi South 9.2 mph - N/A   Overcast
1:55 AM 35.6 °F 29.9 °F 30.2 °F 81% 30.11 in 10.0 mi South 6.9 mph - N/A   Overcast
2:15 AM 35.6 °F 29.2 °F 30.2 °F 81% 30.11 in 10.0 mi South 8.1 mph - N/A   Overcast
2:35 AM 35.6 °F 29.2 °F 30.2 °F 81% 30.11 in 10.0 mi South 8.1 mph - N/A   Overcast
2:55 AM 35.6 °F 29.9 °F 30.2 °F 81% 30.11 in 10.0 mi South 6.9 mph - N/A   Overcast
3:15 AM 37.4 °F 32.8 °F 30.2 °F 75% 30.11 in 10.0 mi South 5.8 mph - N/A   Overcast
3:35 AM 37.4 °F 32.1 °F 30.2 °F 75% 30.10 in 10.0 mi South 6.9 mph - N/A   Overcast
3:55 AM 37.4 °F 32.8 °F 32.0 °F 81% 30.10 in 10.0 mi South 5.8 mph - N/A   Overcast
4:15 AM 37.4 °F 31.4 °F 32.0 °F 81% 30.09 in 10.0 mi South 8.1 mph - N/A   Overcast
4:35 AM 37.4 °F 31.4 °F 33.8 °F 87% 30.09 in 10.0 mi SSW 8.1 mph - N/A   Overcast
4:55 AM 37.4 °F 32.1 °F 33.8 °F 87% 30.08 in 10.0 mi South 6.9 mph - N/A   Overcast
5:15 AM 37.4 °F 31.4 °F 33.8 °F 87% 30.07 in 10.0 mi South 8.1 mph - N/A   Overcast
5:35 AM 37.4 °F 30.8 °F 33.8 °F 87% 30.06 in 10.0 mi South 9.2 mph - N/A   Overcast
5:55 AM 37.4 °F 31.4 °F 33.8 °F 87% 30.07 in 10.0 mi South 8.1 mph - N/A   Scattered Clouds
6:15 AM 37.4 °F 32.1 °F 33.8 °F 87% 30.07 in 10.0 mi SSW 6.9 mph - N/A   Clear
6:35 AM 35.6 °F 28.6 °F 33.8 °F 93% 30.06 in 10.0 mi South 9.2 mph - N/A   Clear
6:55 AM 35.6 °F 29.2 °F 33.8 °F 93% 30.06 in 10.0 mi SSW 8.1 mph - N/A   Clear
7:15 AM 35.6 °F 29.2 °F 33.8 °F 93% 30.07 in 10.0 mi SSW 8.1 mph - N/A   Clear
7:35 AM 35.6 °F 29.9 °F 33.8 °F 93% 30.06 in 10.0 mi South 6.9 mph - N/A   Clear
7:55 AM 35.6 °F 29.2 °F 33.8 °F 93% 30.06 in 10.0 mi South 8.1 mph - N/A   Clear
8:15 AM 35.6 °F 29.9 °F 33.8 °F 93% 30.06 in 10.0 mi South 6.9 mph - N/A   Partly Cloudy
8:35 AM 35.6 °F 28.6 °F 33.8 °F 93% 30.06 in 10.0 mi South 9.2 mph - N/A   Partly Cloudy
8:55 AM 37.4 °F 30.3 °F 33.8 °F 87% 30.05 in 10.0 mi South 10.4 mph - N/A   Partly Cloudy
9:15 AM 37.4 °F 31.4 °F 33.8 °F 87% 30.05 in 10.0 mi SSW 8.1 mph - N/A   Partly Cloudy
9:35 AM 39.2 °F 34.2 °F 33.8 °F 81% 30.06 in 10.0 mi SSW 6.9 mph - N/A   Partly Cloudy
9:55 AM 39.2 °F 34.2 °F 35.6 °F 87% 30.05 in 10.0 mi SSW 6.9 mph - N/A   Mostly Cloudy
10:15 AM 39.2 °F 33.0 °F 35.6 °F 87% 30.04 in 10.0 mi South 9.2 mph 17.3 mph N/A   Scattered Clouds
10:35 AM 41.0 °F 34.3 °F 35.6 °F 81% 30.04 in 10.0 mi SSW 11.5 mph 18.4 mph N/A   Partly Cloudy
10:55 AM 39.2 °F 32.0 °F 35.6 °F 87% 30.04 in 10.0 mi SSW 11.5 mph 17.3 mph N/A   Partly Cloudy
11:15 AM 39.2 °F 33.0 °F 35.6 °F 87% 30.04 in 10.0 mi SSW 9.2 mph 19.6 mph N/A   Mostly Cloudy
11:35 AM 39.2 °F 34.2 °F 35.6 °F 87% 30.03 in 10.0 mi SW 6.9 mph 16.1 mph N/A   Overcast
11:55 AM 39.2 °F 34.2 °F 35.6 °F 87% 30.03 in 10.0 mi SSW 6.9 mph - N/A   Overcast
12:15 PM 41.0 °F 35.8 °F 35.6 °F 81% 30.02 in 10.0 mi SSW 8.1 mph 19.6 mph N/A   Mostly Cloudy
12:35 PM 39.2 °F 32.5 °F 35.6 °F 87% 30.02 in 10.0 mi SSW 10.4 mph 17.3 mph N/A   Mostly Cloudy
12:55 PM 39.2 °F 34.2 °F 35.6 °F 87% 30.01 in 10.0 mi SSW 6.9 mph - N/A   Mostly Cloudy
1:15 PM 41.0 °F 35.8 °F 35.6 °F 81% 30.01 in 10.0 mi SSW 8.1 mph - N/A   Overcast
1:35 PM 41.0 °F 35.2 °F 35.6 °F 81% 30.00 in 10.0 mi SSW 9.2 mph - N/A   Overcast
1:55 PM 41.0 °F 35.8 °F 35.6 °F 81% 29.99 in 10.0 mi SW 8.1 mph - N/A   Overcast
2:15 PM 41.0 °F 35.8 °F 35.6 °F 81% 29.98 in 10.0 mi SW 8.1 mph - N/A   Overcast
2:35 PM 41.0 °F 36.4 °F 35.6 °F 81% 29.98 in 10.0 mi SW 6.9 mph - N/A   Overcast
2:55 PM 41.0 °F 37.1 °F 35.6 °F 81% 29.98 in 10.0 mi SW 5.8 mph - N/A   Overcast
3:15 PM 42.8 °F 37.5 °F 33.8 °F 70% 29.97 in 10.0 mi SW 9.2 mph 19.6 mph N/A   Mostly Cloudy
3:35 PM 42.8 °F 37.5 °F 33.8 °F 70% 29.97 in 10.0 mi SW 9.2 mph - N/A   Scattered Clouds
3:55 PM 41.0 °F 37.1 °F 33.8 °F 76% 29.97 in 10.0 mi SSW 5.8 mph - N/A   Mostly Cloudy
4:15 PM 39.2 °F 34.2 °F 33.8 °F 81% 29.97 in 10.0 mi SW 6.9 mph - N/A   Scattered Clouds
4:35 PM 39.2 °F 34.2 °F 33.8 °F 81% 29.97 in 10.0 mi WSW 6.9 mph - N/A   Mostly Cloudy
4:55 PM 39.2 °F 35.9 °F 33.8 °F 81% 29.97 in 10.0 mi SW 4.6 mph - N/A   Overcast
5:15 PM 39.2 °F 37.0 °F 33.8 °F 81% 29.98 in 10.0 mi WSW 3.5 mph - N/A   Overcast
5:35 PM 37.4 °F 32.8 °F 33.8 °F 87% 29.98 in 10.0 mi WSW 5.8 mph - N/A   Overcast
6:35 PM 37.4 °F 32.1 °F 32.0 °F 81% 29.99 in 10.0 mi WSW 6.9 mph - N/A   Overcast
6:55 PM 37.4 °F 32.8 °F 30.2 °F 75% 29.99 in 10.0 mi WSW 5.8 mph - N/A   Overcast
7:55 PM 35.6 °F 29.9 °F 30.2 °F 81% 30.00 in 10.0 mi WSW 6.9 mph - N/A   Scattered Clouds
8:15 PM 35.6 °F 30.7 °F 28.4 °F 75% 30.00 in 10.0 mi WSW 5.8 mph - N/A   Clear
8:35 PM 33.8 °F 28.6 °F 28.4 °F 81% 30.00 in 10.0 mi WSW 5.8 mph - N/A   Mostly Cloudy
8:55 PM 33.8 °F 28.6 °F 28.4 °F 81% 30.00 in 10.0 mi West 5.8 mph - N/A   Overcast
9:15 PM 33.8 °F 28.6 °F 28.4 °F 81% 30.01 in 10.0 mi WSW 5.8 mph - N/A   Overcast
9:35 PM 32.0 °F 26.4 °F 28.4 °F 87% 30.01 in 10.0 mi West 5.8 mph - N/A   Overcast
9:55 PM 32.0 °F 27.5 °F 28.4 °F 87% 30.01 in 10.0 mi WSW 4.6 mph - N/A   Overcast
10:15 PM 32.0 °F 28.7 °F 28.4 °F 87% 30.01 in 10.0 mi WSW 3.5 mph - N/A   Overcast
10:35 PM 32.0 °F 27.5 °F 28.4 °F 87% 30.01 in 10.0 mi WSW 4.6 mph - N/A   Overcast
10:55 PM 32.0 °F 27.5 °F 28.4 °F 87% 30.01 in 10.0 mi WSW 4.6 mph - N/A   Overcast
11:15 PM 32.0 °F 26.4 °F 28.4 °F 87% 30.01 in 10.0 mi WSW 5.8 mph - N/A   Overcast
11:35 PM 32.0 °F 25.6 °F 28.4 °F 87% 30.02 in 10.0 mi West 6.9 mph - N/A   Overcast
11:55 PM 32.0 °F 24.8 °F 28.4 °F 87% 30.02 in 10.0 mi West 8.1 mph - N/A   Overcast